User: anonymous
Location: Caltech
(34.1382°N, 118.1253°W)
Time: 21:47:55
(UTC-07:00)
Language:

JAS-2 - Orbit

View from above orbital plane
View from above orbital plane
View from above satellite
View from above satellite

Ground track
Ground track

The orbit data is extracted from the following two-line orbital elements,

1 24278U 96046B   14293.78233654  .00000024  00000-0  62163-4 0  4987
2 24278 098.5157 290.3123 0349829 331.9105 072.7339 13.53032898897655
Epoch (UTC): 20 October 2014 18:46:33
Eccentricity: 0.0349829
inclination: 98.5157°
perigee height: 801 km
apogee height: 1321 km
right ascension of ascending node: 290.3123°
argument of perigee: 331.9105°
revolutions per day: 13.53032898
mean anomaly at epoch: 72.7339°
orbit number at epoch: 89765

The dashed part of the orbit path shows where the satellite is in the earth's shadow,  

DLR